| time (UTC) | temp F | wind direction | speed MPH | gust MPH | rain 1hr in | rain 24hr in | rain mn in | humidity % | barometer mb |
| 20260502233029 | 52 | 167 | 0.0 | 0.0 | 0.00 | 0.44 | 0.44 | 95 | 1011.7 |
| 20260502231502 | 52 | 167 | 0.0 | 0.0 | 0.00 | 0.44 | 0.44 | 94 | 1011.4 |
| 20260502230021 | 53 | 167 | 0.0 | 0.0 | 0.00 | 0.44 | 0.44 | 94 | 1011.5 |
| 20260502224607 | 53 | 167 | 0.0 | 0.0 | 0.00 | 0.44 | 0.44 | 93 | 1011.5 |
| 20260502223026 | 53 | 158 | 0.0 | 0.0 | 0.01 | 0.44 | 0.44 | 93 | 1011.5 |
| 20260502221544 | 53 | 169 | 0.0 | 0.0 | 0.01 | 0.44 | 0.44 | 93 | 1011.5 |
| 20260502220015 | 53 | 18 | 0.0 | 1.0 | 0.01 | 0.44 | 0.44 | 93 | 1011.4 |
| 20260502214532 | 53 | 240 | 0.0 | 0.0 | 0.01 | 0.44 | 0.44 | 93 | 1011.2 |
| 20260502213124 | 53 | 15 | 0.0 | 0.0 | 0.00 | 0.43 | 0.43 | 93 | 1011.2 |
| 20260502213002 | 53 | 20 | 0.0 | 0.0 | 0.00 | 0.43 | 0.43 | 93 | 1011.2 |
| 20260502211534 | 53 | 18 | 0.0 | 3.0 | 0.01 | 0.43 | 0.43 | 93 | 1011.5 |
| 20260502210044 | 53 | 337 | 0.0 | 3.0 | 0.01 | 0.43 | 0.43 | 92 | 1011.3 |
| 20260502204510 | 53 | 75 | 0.0 | 4.0 | 0.01 | 0.43 | 0.43 | 94 | 1011.3 |
| 20260502203030 | 53 | 75 | 0.0 | 2.0 | 0.01 | 0.43 | 0.43 | 94 | 1011.3 |
| 20260502201558 | 53 | 15 | 0.0 | 5.0 | 0.01 | 0.42 | 0.42 | 93 | 1011.3 |
| 20260502200025 | 53 | 358 | 0.0 | 5.0 | 0.01 | 0.42 | 0.42 | 95 | 1011.5 |
| 20260502194538 | 53 | 4 | 1.0 | 7.0 | 0.01 | 0.42 | 0.42 | 94 | 1011.6 |
| 20260502193012 | 53 | 143 | 0.0 | 5.0 | 0.02 | 0.42 | 0.42 | 94 | 1011.8 |
| 20260502191538 | 53 | 335 | 0.0 | 4.0 | 0.02 | 0.41 | 0.41 | 95 | 1012.0 |
| 20260502190100 | 52 | 316 | 2.0 | 7.0 | 0.03 | 0.42 | 0.41 | 94 | 1012.0 |
| 20260502184542 | 52 | 334 | 1.0 | 5.0 | 0.04 | 0.42 | 0.41 | 95 | 1011.9 |
| 20260502183057 | 51 | 339 | 0.0 | 5.0 | 0.04 | 0.41 | 0.40 | 95 | 1011.9 |
| 20260502181517 | 52 | 43 | 1.0 | 6.0 | 0.03 | 0.40 | 0.39 | 95 | 1012.5 |
| 20260502163059 | 52 | 335 | 1.0 | 4.0 | 0.05 | 0.34 | 0.33 | 95 | 1013.2 |
| 20260502163015 | 51 | 73 | 1.0 | 4.0 | 0.05 | 0.34 | 0.33 | 95 | 1013.1 |
| 20260502161527 | 52 | 102 | 0.0 | 3.0 | 0.04 | 0.32 | 0.31 | 96 | 1013.2 |
| 20260502151501 | 52 | 67 | 2.0 | 7.0 | 0.06 | 0.28 | 0.27 | 96 | 1013.0 |
| 20260502123019 | 51 | 14 | 2.0 | 9.0 | 0.06 | 0.14 | 0.13 | 95 | 1011.6 |
| 20260502121541 | 51 | 3 | 2.0 | 7.0 | 0.07 | 0.13 | 0.12 | 94 | 1011.5 |
| 20260502114527 | 52 | 51 | 4.0 | 10.0 | 0.07 | 0.10 | 0.09 | 93 | 1011.4 |
| 20260502113055 | 52 | 27 | 4.0 | 12.0 | 0.06 | 0.08 | 0.07 | 93 | 1011.6 |
| 20260502111517 | 52 | 352 | 4.0 | 8.0 | 0.05 | 0.06 | 0.05 | 92 | 1011.7 |
| 20260502110039 | 52 | 359 | 4.0 | 10.0 | 0.03 | 0.04 | 0.03 | 92 | 1011.6 |
| 20260502104551 | 53 | 327 | 5.0 | 13.0 | 0.02 | 0.03 | 0.02 | 92 | 1011.8 |
| 20260502103007 | 53 | 316 | 4.0 | 9.0 | 0.01 | 0.02 | 0.01 | 91 | 1011.7 |
| 20260502101607 | 53 | 359 | 3.0 | 8.0 | 0.00 | 0.01 | 0.00 | 91 | 1011.7 |
| 20260502100104 | 54 | 347 | 1.0 | 5.0 | 0.00 | 0.01 | 0.00 | 90 | 1011.7 |
| 20260502091519 | 53 | 322 | 0.0 | 4.0 | 0.00 | 0.01 | 0.00 | 91 | 1011.7 |
| 20260502080110 | 53 | 205 | 0.0 | 0.0 | 0.00 | 0.01 | 0.00 | 94 | 1011.3 |
| 20260502071507 | 52 | 205 | 0.0 | 0.0 | 0.00 | 0.01 | 0.00 | 95 | 1011.1 |
| 20260502070053 | 52 | 205 | 0.0 | 0.0 | 0.00 | 0.01 | 0.00 | 96 | 1011.3 |
| 20260502064559 | 51 | 205 | 0.0 | 0.0 | 0.00 | 0.01 | 0.00 | 96 | 1011.4 |
| 20260502064511 | 51 | 205 | 0.0 | 0.0 | 0.00 | 0.01 | 0.00 | 96 | 1011.5 |
| 20260502063030 | 51 | 205 | 0.0 | 0.0 | 0.00 | 0.01 | 0.00 | 96 | 1011.4 |
| 20260502061552 | 51 | 205 | 0.0 | 0.0 | 0.00 | 0.01 | 0.00 | 96 | 1011.5 |
| 20260502060012 | 51 | 205 | 0.0 | 0.0 | 0.00 | 0.01 | 0.00 | 96 | 1011.7 |
| 20260502054539 | 51 | 205 | 0.0 | 0.0 | 0.00 | 0.01 | 0.00 | 96 | 1011.8 |
| 20260502053051 | 51 | 205 | 0.0 | 0.0 | 0.00 | 0.01 | 0.00 | 96 | 1012.0 |
| 20260502051521 | 51 | 205 | 0.0 | 0.0 | 0.00 | 0.01 | 0.00 | 96 | 1012.2 |
| 20260502050037 | 51 | 205 | 0.0 | 0.0 | 0.00 | 0.01 | 0.00 | 96 | 1012.2 |
| 20260502044558 | 51 | 205 | 0.0 | 0.0 | 0.00 | 0.01 | 0.00 | 96 | 1012.4 |
| 20260502044500 | 51 | 205 | 0.0 | 0.0 | 0.00 | 0.01 | 0.00 | 96 | 1012.3 |
| 20260502043031 | 51 | 205 | 0.0 | 0.0 | 0.00 | 0.01 | 0.00 | 95 | 1012.4 |
| 20260502041547 | 51 | 205 | 0.0 | 0.0 | 0.00 | 0.01 | 0.00 | 95 | 1012.4 |
| 20260502040003 | 51 | 205 | 0.0 | 0.0 | 0.00 | 0.01 | 0.01 | 96 | 1012.4 |
| 20260502034524 | 51 | 205 | 0.0 | 0.0 | 0.00 | 0.01 | 0.01 | 95 | 1012.3 |
| 20260502033043 | 50 | 205 | 0.0 | 0.0 | 0.00 | 0.01 | 0.01 | 95 | 1012.7 |
| 20260502031507 | 50 | 205 | 0.0 | 0.0 | 0.00 | 0.01 | 0.01 | 95 | 1012.9 |
| 20260502030037 | 50 | 205 | 0.0 | 0.0 | 0.00 | 0.01 | 0.01 | 95 | 1012.9 |
| 20260502024504 | 50 | 205 | 0.0 | 0.0 | 0.00 | 0.01 | 0.01 | 94 | 1013.1 |
| 20260502023042 | 51 | 205 | 0.0 | 0.0 | 0.00 | 0.01 | 0.01 | 94 | 1013.0 |
| 20260502021504 | 51 | 205 | 0.0 | 0.0 | 0.00 | 0.01 | 0.01 | 94 | 1013.2 |
| 20260502020026 | 51 | 160 | 0.0 | 0.0 | 0.00 | 0.01 | 0.01 | 93 | 1013.0 |
| 20260502014555 | 51 | 160 | 0.0 | 0.0 | 0.00 | 0.01 | 0.01 | 92 | 1012.7 |
| 20260502013030 | 51 | 160 | 0.0 | 0.0 | 0.00 | 0.01 | 0.01 | 92 | 1012.8 |
| 20260502011549 | 52 | 160 | 0.0 | 0.0 | 0.00 | 0.01 | 0.01 | 92 | 1012.9 |
| 20260502010027 | 52 | 160 | 0.0 | 0.0 | 0.00 | 0.01 | 0.01 | 91 | 1012.7 |
| 20260502004555 | 53 | 160 | 0.0 | 0.0 | 0.00 | 0.01 | 0.01 | 89 | 1012.7 |
| 20260502003014 | 53 | 160 | 0.0 | 0.0 | 0.00 | 0.01 | 0.01 | 88 | 1012.2 |
| 20260502001540 | 54 | 160 | 0.0 | 0.0 | 0.00 | 0.01 | 0.01 | 87 | 1012.3 |
| 20260502000004 | 54 | 179 | 0.0 | 0.0 | 0.00 | 0.01 | 0.01 | 85 | 1012.4 |
| 20260501234529 | 54 | 179 | 0.0 | 0.0 | 0.00 | 0.01 | 0.01 | 84 | 1012.4 |